Marfa, TX

3:12 AM CDT on April 30, 2017 (GMT -0500)
Marfa Municipal

Weather History for KMRF - January, 2012

Change the Weather History Date:

Tuesday, January 10, 2012

  Actual Average Record
Temperature  
Mean Temperature 39 °F -  
Max Temperature 50 °F 56 °F 75 °F (2017)
Min Temperature 28 °F 25 °F 10 °F (2006)
Degree Days  
Heating Degree Days 26    
Moisture  
Dew Point 27 °F    
Average Humidity 69    
Maximum Humidity 100    
Minimum Humidity 40    
Precipitation  
Precipitation 0.00 in - - ()
Sea Level Pressure  
Sea Level Pressure 30.13 in    
Wind  
Wind Speed 12 mph (West)    
Max Wind Speed 24 mph    
Max Gust Speed 28 mph    
Visibility 10 miles    
Events      
Averages and records for this station are not official NWS values.
T = Trace of Precipitation, MM = Missing Value Source: NWS Daily Summary

Daily Weather History Graph

Daily Weather History Graph

Search for Another Location

Airport or City:

Trip Planner

Search our weather history database for the weather conditions in past years. The results will help you decide how hot, cold, wet, or windy it might be!

Date:

Astronomy

Jan. 10, 2012 Rise Set
Actual Time 7:53 AM CST 6:13 PM CST
Civil Twilight 7:27 AM CST 6:39 PM CST
Nautical Twilight 6:58 AM CST 7:09 PM CST
Astronomical Twilight 6:28 AM CST 7:38 PM CST
Moon 7:58 PM CST (1/10) 8:41 AM CST (1/10)
Length of Visible Light 11h 11m
Length of Day
10h 19m
Full, 98% of the Moon is Illuminated
Jan 10
Full
Jan 16
Last Quarter
Jan 23
New
Jan 30
First Quarter
Feb 7
Full

Hourly Weather History & Observations

Time (CST) Temp. Windchill Dew Point Humidity Pressure Visibility Wind Dir Wind Speed Gust Speed Precip Events Conditions
12:15 AM 30.2 °F 20.8 °F 26.6 °F 86% 30.19 in 10.0 mi WNW 11.5 mph - N/A   Mostly Cloudy
12:35 AM 28.4 °F 22.2 °F 26.6 °F 93% 30.19 in 10.0 mi WSW 5.8 mph - N/A   Scattered Clouds
12:55 AM 30.2 °F 26.7 °F 26.6 °F 86% 30.18 in 10.0 mi WNW 3.5 mph - N/A   Partly Cloudy
1:15 AM 28.4 °F 19.7 °F 26.6 °F 93% 30.17 in 10.0 mi WNW 9.2 mph - N/A   Clear
1:35 AM 30.2 °F 21.3 °F 26.6 °F 86% 30.17 in 10.0 mi WNW 10.4 mph - N/A   Clear
1:55 AM 28.4 °F 20.4 °F 26.6 °F 93% 30.17 in 10.0 mi WNW 8.1 mph - N/A   Clear
2:15 AM 28.4 °F 22.2 °F 26.6 °F 93% 30.17 in 10.0 mi West 5.8 mph - N/A   Clear
2:35 AM 30.2 °F 22.6 °F 26.6 °F 86% 30.17 in 10.0 mi WNW 8.1 mph - N/A   Clear
2:55 AM 28.4 °F 21.2 °F 26.6 °F 93% 30.16 in 10.0 mi WNW 6.9 mph - N/A   Clear
3:15 AM 28.4 °F - 28.4 °F 100% 30.15 in 10.0 mi Calm Calm - N/A   Clear
3:35 AM 28.4 °F 24.6 °F 26.6 °F 93% 30.15 in 10.0 mi West 3.5 mph - N/A   Clear
3:55 AM 28.4 °F 20.4 °F 26.6 °F 93% 30.15 in 10.0 mi WNW 8.1 mph - N/A   Clear
4:15 AM 28.4 °F 21.2 °F 26.6 °F 93% 30.15 in 10.0 mi WNW 6.9 mph - N/A   Clear
4:35 AM 30.2 °F 20.8 °F 28.4 °F 93% 30.15 in 10.0 mi WNW 11.5 mph - N/A   Clear
4:55 AM 30.2 °F 21.9 °F 26.6 °F 86% 30.16 in 10.0 mi WNW 9.2 mph - N/A   Clear
5:15 AM 30.2 °F 19.8 °F 26.6 °F 86% 30.16 in 10.0 mi WSW 13.8 mph - N/A   Clear
5:55 AM 30.2 °F 19.8 °F 26.6 °F 86% 30.17 in 10.0 mi West 13.8 mph - N/A   Clear
6:15 AM 32.0 °F 26.4 °F 28.4 °F 87% 30.16 in 10.0 mi SSW 5.8 mph - N/A   Clear
6:35 AM 30.2 °F 20.8 °F 28.4 °F 93% 30.16 in 10.0 mi West 11.5 mph 16.1 mph N/A   Clear
6:55 AM 30.2 °F 21.9 °F 28.4 °F 93% 30.17 in 10.0 mi WSW 9.2 mph - N/A   Clear
7:15 AM 30.2 °F 21.9 °F 28.4 °F 93% 30.15 in 10.0 mi West 9.2 mph - N/A   Clear
7:35 AM 30.2 °F 17.4 °F 28.4 °F 93% 30.14 in 10.0 mi West 20.7 mph - N/A   Clear
7:55 AM 30.2 °F 18.1 °F 26.6 °F 86% 30.14 in 10.0 mi West 18.4 mph - N/A   Clear
8:15 AM 30.2 °F 21.9 °F 26.6 °F 86% 30.14 in 10.0 mi West 9.2 mph - N/A   Clear
8:35 AM 32.0 °F 25.6 °F 28.4 °F 87% 30.15 in 10.0 mi WNW 6.9 mph - N/A   Clear
8:55 AM 33.8 °F 25.8 °F 28.4 °F 81% 30.16 in 10.0 mi WNW 10.4 mph - N/A   Clear
9:15 AM 35.6 °F 26.6 °F 30.2 °F 81% 30.17 in 10.0 mi WNW 13.8 mph 19.6 mph N/A   Clear
9:35 AM 37.4 °F 27.2 °F 30.2 °F 75% 30.16 in 10.0 mi West 19.6 mph 24.2 mph N/A   Clear
9:55 AM 39.2 °F 29.6 °F 28.4 °F 65% 30.17 in 10.0 mi WNW 19.6 mph 25.3 mph N/A   Clear
10:15 AM 39.2 °F 29.6 °F 28.4 °F 65% 30.18 in 10.0 mi West 19.6 mph - N/A   Clear
10:35 AM 42.8 °F 35.1 °F 28.4 °F 57% 30.18 in 10.0 mi West 16.1 mph 25.3 mph N/A   Clear
10:55 AM 44.6 °F 37.2 °F 28.4 °F 53% 30.18 in 10.0 mi West 17.3 mph 24.2 mph N/A   Clear
11:15 AM 44.6 °F 36.6 °F 24.8 °F 46% 30.17 in 10.0 mi WNW 19.6 mph 26.5 mph N/A   Clear
11:35 AM 46.4 °F 38.1 °F 23.0 °F 40% 30.16 in 10.0 mi West 24.2 mph - N/A   Clear
11:55 AM 46.4 °F 38.3 °F 23.0 °F 40% 30.15 in 10.0 mi West 23.0 mph - N/A   Clear
2:15 PM 48.2 °F - 26.6 °F 43% 30.10 in 10.0 mi West 21.9 mph 25.3 mph N/A   Clear
2:35 PM 50.0 °F - 26.6 °F 40% 30.09 in 10.0 mi West 20.7 mph 26.5 mph N/A   Clear
2:55 PM 50.0 °F - 26.6 °F 40% 30.08 in 10.0 mi West 23.0 mph 27.6 mph N/A   Clear
3:15 PM 50.0 °F - 26.6 °F 40% 30.08 in 10.0 mi WNW 23.0 mph 26.5 mph N/A   Clear
3:35 PM 50.0 °F - 26.6 °F 40% 30.08 in 10.0 mi WNW 20.7 mph 26.5 mph N/A   Clear
3:55 PM 50.0 °F - 26.6 °F 40% 30.08 in 10.0 mi West 21.9 mph 25.3 mph N/A   Clear
4:15 PM 50.0 °F - 26.6 °F 40% 30.08 in 10.0 mi West 17.3 mph 23.0 mph N/A   Clear
4:35 PM 50.0 °F - 26.6 °F 40% 30.08 in 10.0 mi West 18.4 mph 23.0 mph N/A   Clear
4:55 PM 50.0 °F - 26.6 °F 40% 30.08 in 10.0 mi West 18.4 mph 25.3 mph N/A   Clear
5:15 PM 50.0 °F - 26.6 °F 40% 30.08 in 10.0 mi West 18.4 mph 24.2 mph N/A   Clear
5:35 PM 48.2 °F - 26.6 °F 43% 30.07 in 10.0 mi West 19.6 mph 25.3 mph N/A   Clear
5:55 PM 46.4 °F 38.3 °F 26.6 °F 46% 30.05 in 10.0 mi West 23.0 mph - N/A   Clear
6:15 PM 46.4 °F 39.0 °F 26.6 °F 46% 30.05 in 10.0 mi West 19.6 mph - N/A   Clear
6:35 PM 42.8 °F 35.8 °F 24.8 °F 49% 30.06 in 10.0 mi WSW 13.8 mph - N/A   Clear
6:55 PM 42.8 °F 35.8 °F 26.6 °F 53% 30.07 in 10.0 mi West 13.8 mph - N/A   Clear
7:15 PM 41.0 °F 36.4 °F 24.8 °F 53% 30.07 in 10.0 mi West 6.9 mph - N/A   Clear
7:35 PM 37.4 °F 31.4 °F 24.8 °F 60% 30.07 in 10.0 mi WSW 8.1 mph - N/A   Clear
7:55 PM 41.0 °F 35.2 °F 26.6 °F 57% 30.07 in 10.0 mi WSW 9.2 mph - N/A   Clear
8:15 PM 42.8 °F 36.2 °F 26.6 °F 53% 30.07 in 10.0 mi West 12.7 mph - N/A   Clear
8:35 PM 41.0 °F 34.7 °F 28.4 °F 61% 30.07 in 10.0 mi West 10.4 mph - N/A   Clear
8:55 PM 42.8 °F 39.3 °F 26.6 °F 53% 30.06 in 10.0 mi NW 5.8 mph - N/A   Clear
9:15 PM 39.2 °F - 26.6 °F 61% 30.06 in 10.0 mi Calm Calm - N/A   Clear
9:35 PM 39.2 °F 35.0 °F 24.8 °F 56% 30.07 in 10.0 mi SSW 5.8 mph - N/A   Clear
9:55 PM 39.2 °F 34.2 °F 26.6 °F 61% 30.07 in 10.0 mi WSW 6.9 mph - N/A   Clear
10:15 PM 39.2 °F 34.2 °F 24.8 °F 56% 30.07 in 10.0 mi SSE 6.9 mph - N/A   Clear
10:35 PM 35.6 °F 28.6 °F 26.6 °F 70% 30.07 in 10.0 mi SSE 9.2 mph - N/A   Clear
10:55 PM 32.0 °F - 23.0 °F 69% 30.07 in 10.0 mi Calm Calm - N/A   Clear
11:15 PM 30.2 °F 26.7 °F 24.8 °F 80% 30.07 in 10.0 mi ESE 3.5 mph - N/A   Clear
11:35 PM 28.4 °F 20.4 °F 21.2 °F 74% 30.06 in 10.0 mi ESE 8.1 mph - N/A   Clear
11:55 PM 30.2 °F 26.7 °F 24.8 °F 80% 30.05 in 10.0 mi SSE 3.5 mph - N/A   Clear